[[{"header":{"parameterUnit":"m.s-1","parameterCategory":1,"la1":30.2991,"la2":30.254,"lo1":-89.0895,"lo2":-89.0444,"dy":0.0017,"dx":0.0017,"nx":28,"ny":28,"refTime":"2023-11-11T09:00:00:Z","depth":0,"parameterNumber":2,"parameterNumberName":"U-component_of_WINDS"},"data":[0,0,0,0,0,0,0,0,0,0,0,0,0,0,0,0,0,0,0,0,0,0,0,0,0,0,0,0,0,0,0,0,0,0,0,0,0,0,0,0,0,0,0,0,0,0,0,0,0,0,0,0,0,0,0,0,0,0,-1.0758,-1.0758,0,-1.0759,-1.0759,-1.0759,-1.073,-1.0729,-1.0728,-1.0727,-1.073,-1.0731,-1.0732,0,0,0,0,0,0,0,0,0,0,0,0,0,-1.0731,-1.0732,-1.0758,-1.0758,-1.0758,-1.0759,-1.0759,-1.0759,-1.073,-1.0729,-1.0728,-1.0727,-1.073,-1.0731,-1.0732,0,0,0,0,0,0,0,0,0,0,0,0,0,-1.0739,-1.0732,-1.0758,-1.0743,-1.0742,-1.0759,-1.0759,-1.0759,-1.073,-1.0729,-1.0727,-1.0726,-1.0729,-1.0731,-1.0732,-1.0763,0,0,-1.0736,-1.0736,0,0,0,0,0,0,0,0,-1.0738,-1.074,-1.0745,-1.0744,-1.0743,-1.0743,-1.0751,-1.0761,-1.073,-1.0735,-1.0727,-1.0726,-1.0735,-1.0736,-1.0739,-1.0763,-1.0764,-1.0736,-1.0736,-1.0737,-1.0737,0,0,0,0,0,0,0,-1.0738,-1.0739,-1.0758,-1.0746,-1.0744,-1.0737,-1.0737,-1.0752,-1.0742,-1.0734,-1.0732,-1.0732,-1.0734,-1.0738,-1.0739,-1.0764,-1.0736,-1.0737,-1.0737,-1.0738,-1.0814,-1.0815,0,0,0,0,0,0,-1.0739,-1.0739,-1.0758,-1.0758,-1.0738,-1.0739,-1.0738,-1.0744,-1.0741,-1.074,-1.0733,-1.0731,-1.0736,-1.0737,-1.0739,-1.0776,-1.0737,-1.0738,-1.0739,-1.0813,-1.0814,-1.0816,0,0,0,0,0,0,-1.0739,-1.0741,-1.0758,-1.0748,-1.075,-1.074,-1.0747,-1.0745,-1.0748,-1.0741,-1.0739,-1.0739,-1.0735,-1.0737,-1.0757,-1.0775,-1.0739,-1.074,-1.0811,-1.0813,-1.0815,-1.085,0,0,0,0,0,0,-1.0738,-1.0741,-1.0753,-1.0749,-1.075,-1.0777,-1.0748,-1.0746,-1.075,-1.0747,-1.0745,-1.0744,-1.0735,-1.0756,-1.0759,-1.0776,-1.0741,-1.0809,-1.0812,-1.0814,-1.0847,-1.0852,-1.0857,0,0,0,0,0,-1.0737,-1.0763,-1.0754,-1.0756,-1.0765,-1.0778,-1.0779,-1.0767,-1.0752,-1.0764,-1.0759,-1.0744,-1.0773,-1.0758,-1.0761,-1.0779,-1.0808,-1.0811,-1.0814,-1.0845,-1.0851,-1.0857,0,0,0,0,0,0,-1.077,-1.0762,-1.0752,-1.0777,-1.0778,-1.0773,-1.0787,-1.0775,-1.0781,-1.0778,-1.0763,-1.0763,-1.0786,-1.0784,-1.0768,-1.081,-1.0788,-1.0791,-1.081,-1.0816,-1.0822,-1.0822,-1.0742,0,0,0,0,0,-1.078,-1.0791,-1.0783,-1.0806,-1.0807,-1.0797,-1.0802,-1.0793,-1.0794,-1.0795,-1.0791,-1.0793,-1.0803,-1.0809,-1.0818,-1.0846,-1.0846,-1.086,-1.0865,-1.087,-1.0874,-1.0889,-1.0895,-1.0825,-1.0825,-1.0825,0,0,-1.0801,-1.0798,-1.0806,-1.0813,-1.0813,-1.0825,-1.0798,-1.0812,-1.082,-1.0797,-1.0816,-1.0813,-1.0815,-1.0839,-1.085,-1.0839,-1.0893,-1.0873,-1.0877,-1.0878,-1.0892,-1.0899,-1.0905,-1.0827,-1.0827,-1.0826,0,0,-1.0846,-1.0845,-1.0863,-1.0864,-1.0864,-1.0857,-1.0861,-1.0858,-1.0855,-1.0873,-1.0856,-1.0866,-1.0883,-1.0884,-1.0887,-1.0932,-1.0919,-1.0935,-1.0963,-1.0978,-1.0983,-1.0988,-1.1005,-1.1011,-1.0938,-1.0938,-1.0938,0,-1.0873,-1.0889,-1.0875,-1.089,-1.0893,-1.0872,-1.0891,-1.0892,-1.0895,-1.0898,-1.0885,-1.0905,-1.0905,-1.0929,-1.094,-1.0943,-1.0948,-1.0935,-1.0983,-1.0988,-1.0993,-1.1008,-1.1014,-1.094,-1.094,-1.094,-1.094,0,-1.0922,-1.0934,-1.0949,-1.0952,-1.0957,-1.0974,-1.0963,-1.097,-1.096,-1.0954,-1.0973,-1.0972,-1.0979,-1.0984,-1.0975,-1.1007,-1.1001,-1.0986,-1.0964,-1.1001,-1.1016,-1.1022,-1.0943,-1.0942,-1.0942,-1.0941,0,0,-1.0989,-1.0983,-1.0989,-1.099,-1.0988,-1.0997,-1.1013,-1.1019,-1.1026,-1.1028,-1.1042,-1.1056,-1.1042,-1.1045,-1.1036,-1.1049,-1.1085,-1.1032,-1.1032,-1.1043,-1.1121,-1.1133,-1.114,-1.1075,-1.1076,-1.1077,-1.1121,0,-1.1033,-1.106,-1.1047,-1.1075,-1.1086,-1.1065,-1.1079,-1.108,-1.1074,-1.1083,-1.1078,-1.1088,-1.1069,-1.1071,-1.1083,-1.1078,-1.11,-1.1074,-1.1088,-1.1089,-1.109,-1.1148,-1.116,-1.1202,-1.1127,-1.1128,-1.1128,0,-1.1088,-1.1092,-1.1122,-1.1117,-1.1121,-1.1134,-1.1139,-1.1148,-1.1148,-1.1143,-1.1146,-1.1134,-1.1149,-1.1126,-1.1148,-1.113,-1.1135,-1.1134,-1.1135,-1.1137,-1.1112,-1.1152,-1.1215,-1.1222,-1.1137,-1.1136,-1.1136,0,-1.1135,-1.1148,-1.1167,-1.1168,-1.1164,-1.1173,-1.1172,-1.117,-1.1175,-1.1179,-1.1182,-1.1189,-1.1192,-1.1198,-1.1187,-1.1171,-1.121,-1.1186,-1.1207,-1.1208,-1.1218,-1.1217,-1.1284,-1.1219,-1.1219,-1.1219,-1.1219,0,-1.1186,-1.1205,-1.1188,-1.12,-1.122,-1.1205,-1.1226,-1.1222,-1.1221,-1.1232,-1.1214,-1.1225,-1.121,-1.122,-1.1211,-1.1231,-1.1232,-1.123,-1.1227,-1.1232,-1.1232,-1.1236,-1.1233,-1.1221,-1.122,-1.122,-1.122,0,-1.1242,-1.1231,-1.1251,-1.1245,-1.1243,-1.1259,-1.1253,-1.1264,-1.1258,-1.1272,-1.1274,-1.1264,-1.1274,-1.1264,-1.1273,-1.1268,-1.1294,-1.1287,-1.1294,-1.1292,-1.1314,-1.1313,-1.1386,-1.1395,-1.1324,-1.1325,-1.1325,0,-1.1276,-1.129,-1.1285,-1.1291,-1.129,-1.13,-1.1304,-1.129,-1.1295,-1.1296,-1.1307,-1.1315,-1.1322,-1.1339,-1.1332,-1.134,-1.1333,-1.1358,-1.1334,-1.1338,-1.1335,-1.1334,-1.1336,-1.1364,-1.1364,-1.1365,-1.1366,0,-1.1338,-1.1332,-1.1339,-1.1344,-1.1349,-1.1353,-1.1355,-1.1361,-1.1345,-1.1353,-1.1362,-1.1367,-1.1376,-1.1385,-1.139,-1.1389,-1.1375,-1.1373,-1.1378,-1.1384,-1.1387,-1.1386,-1.1308,-1.1372,-1.1371,-1.1371,-1.137,-1.137,-1.1385,-1.1396,-1.1394,-1.1402,-1.1402,-1.1404,-1.1414,-1.1408,-1.1416,-1.1422,-1.1413,-1.1425,-1.1424,-1.143,-1.143,-1.144,-1.1429,-1.1437,-1.1439,-1.1441,-1.1445,-1.1385,-1.1441,-1.144,-1.144,-1.144,-1.144,0,-1.1446,-1.1443,-1.1451,-1.1454,-1.1461,-1.1446,-1.1447,-1.1454,-1.1465,-1.1465,-1.1471,-1.1482,-1.149,-1.1484,-1.1491,-1.15,-1.1494,-1.1502,-1.1502,-1.1502,-1.1454,-1.1449,-1.1507,-1.1507,-1.1507,-1.1507,-1.1507,-1.1507,-1.1479,-1.1498,-1.1491,-1.1509,-1.1506,-1.1518,-1.152,-1.1522,-1.1522,-1.1535,-1.1542,-1.1537,-1.1535,-1.1541,-1.1548,-1.1546,-1.155,-1.1561,-1.1557,-1.1512,-1.1506,-1.1499,-1.1495,-1.1562,-1.1562,-1.1605,-1.1605,-1.1606]},{"header":{"parameterUnit":"m.s-1","parameterCategory":1,"la1":30.2991,"la2":30.254,"lo1":-89.0895,"lo2":-89.0444,"dy":0.0017,"dx":0.0017,"nx":28,"ny":28,"refTime":"2023-11-11T09:00:00:Z","depth":0,"parameterNumber":3,"parameterNumberName":"V-component_of_WINDS"},"data":[0,0,0,0,0,0,0,0,0,0,0,0,0,0,0,0,0,0,0,0,0,0,0,0,0,0,0,0,0,0,0,0,0,0,0,0,0,0,0,0,0,0,0,0,0,0,0,0,0,0,0,0,0,0,0,0,0,0,-4.2862,-4.2863,0,-4.2876,-4.2876,-4.2876,-4.2817,-4.2815,-4.2813,-4.2811,-4.2823,-4.2825,-4.2827,0,0,0,0,0,0,0,0,0,0,0,0,0,-4.2783,-4.2785,-4.2862,-4.2863,-4.2863,-4.2876,-4.2876,-4.2876,-4.2817,-4.2815,-4.2813,-4.2811,-4.2822,-4.2824,-4.2827,0,0,0,0,0,0,0,0,0,0,0,0,0,-4.2809,-4.2786,-4.2862,-4.2835,-4.2833,-4.2876,-4.2876,-4.2876,-4.2817,-4.2815,-4.2812,-4.281,-4.2821,-4.2824,-4.2827,-4.2897,0,0,-4.2836,-4.2837,0,0,0,0,0,0,0,0,-4.2808,-4.2812,-4.2839,-4.2837,-4.2834,-4.2842,-4.2852,-4.2883,-4.2818,-4.2823,-4.2811,-4.2808,-4.2831,-4.2833,-4.2841,-4.2897,-4.2898,-4.2836,-4.2838,-4.2839,-4.284,0,0,0,0,0,0,0,-4.2806,-4.2811,-4.2868,-4.2839,-4.2837,-4.2821,-4.2822,-4.2858,-4.2841,-4.2822,-4.2818,-4.2821,-4.2829,-4.2839,-4.2841,-4.2898,-4.2836,-4.2839,-4.284,-4.2841,-4.3012,-4.3015,0,0,0,0,0,0,-4.2808,-4.281,-4.2867,-4.2868,-4.2815,-4.2825,-4.2826,-4.2842,-4.2841,-4.2838,-4.2823,-4.2818,-4.2835,-4.2838,-4.2841,-4.2923,-4.2839,-4.2842,-4.2843,-4.3009,-4.3013,-4.3016,0,0,0,0,0,0,-4.2807,-4.2814,-4.2867,-4.2838,-4.2844,-4.2829,-4.2848,-4.2844,-4.2853,-4.2841,-4.2838,-4.2835,-4.2833,-4.2837,-4.2884,-4.2922,-4.2843,-4.2846,-4.3006,-4.301,-4.3014,-4.3087,0,0,0,0,0,0,-4.2805,-4.2814,-4.2841,-4.2839,-4.2845,-4.291,-4.285,-4.2846,-4.2858,-4.2852,-4.2852,-4.285,-4.2831,-4.288,-4.2886,-4.2925,-4.2848,-4.3002,-4.3008,-4.3013,-4.3081,-4.3093,-4.3104,0,0,0,0,0,-4.2802,-4.286,-4.2842,-4.285,-4.2879,-4.2912,-4.2916,-4.2894,-4.2862,-4.2888,-4.2881,-4.285,-4.2917,-4.2885,-4.2892,-4.2932,-4.3,-4.3006,-4.3012,-4.3076,-4.3091,-4.3103,0,0,0,0,0,0,-4.2865,-4.2859,-4.284,-4.2899,-4.2907,-4.2902,-4.2935,-4.291,-4.2927,-4.292,-4.2892,-4.2892,-4.2944,-4.2942,-4.2906,-4.3,-4.2953,-4.2961,-4.2999,-4.3013,-4.3024,-4.3023,-4.285,0,0,0,0,0,-4.2887,-4.2915,-4.2908,-4.2961,-4.2966,-4.295,-4.2964,-4.2946,-4.2953,-4.2956,-4.2951,-4.2959,-4.2981,-4.2997,-4.3017,-4.3081,-4.308,-4.3112,-4.3123,-4.3132,-4.314,-4.3173,-4.3188,-4.3036,-4.3036,-4.3036,0,0,-4.293,-4.293,-4.295,-4.2973,-4.2977,-4.3007,-4.2953,-4.2986,-4.3008,-4.296,-4.3004,-4.3002,-4.3007,-4.3063,-4.3087,-4.3064,-4.3181,-4.314,-4.3148,-4.315,-4.3181,-4.3196,-4.3209,-4.3041,-4.304,-4.3039,0,0,-4.3024,-4.3027,-4.3072,-4.3077,-4.3084,-4.3074,-4.3085,-4.3084,-4.3081,-4.3125,-4.309,-4.3114,-4.3154,-4.316,-4.3168,-4.3265,-4.3237,-4.3273,-4.3332,-4.3365,-4.3377,-4.3387,-4.3422,-4.3435,-4.328,-4.328,-4.328,0,-4.3077,-4.3121,-4.3098,-4.3134,-4.3145,-4.3105,-4.315,-4.3156,-4.3169,-4.3177,-4.3151,-4.32,-4.3201,-4.3258,-4.3282,-4.3289,-4.3301,-4.3273,-4.3377,-4.3387,-4.3397,-4.343,-4.3443,-4.3284,-4.3284,-4.3284,-4.3283,0,-4.3186,-4.3217,-4.3252,-4.3267,-4.3282,-4.3322,-4.3305,-4.3323,-4.3304,-4.3296,-4.3342,-4.3341,-4.3361,-4.3373,-4.3355,-4.3428,-4.3413,-4.3382,-4.3335,-4.3416,-4.3447,-4.3459,-4.3291,-4.3289,-4.3288,-4.3287,0,0,-4.332,-4.3322,-4.3336,-4.3342,-4.3347,-4.337,-4.3409,-4.3429,-4.3445,-4.3456,-4.3487,-4.3522,-4.3494,-4.3503,-4.3485,-4.3515,-4.3592,-4.348,-4.348,-4.3502,-4.3672,-4.3696,-4.3711,-4.3574,-4.3576,-4.3578,-4.3672,0,-4.3413,-4.348,-4.346,-4.3527,-4.3555,-4.3517,-4.355,-4.3557,-4.355,-4.3573,-4.3565,-4.3591,-4.3552,-4.3557,-4.3584,-4.3577,-4.3626,-4.357,-4.3602,-4.3604,-4.3603,-4.3727,-4.3751,-4.384,-4.3684,-4.3686,-4.3687,0,-4.353,-4.3547,-4.3617,-4.3618,-4.3629,-4.3659,-4.3676,-4.3699,-4.3705,-4.3698,-4.3709,-4.3685,-4.3722,-4.3675,-4.3726,-4.3688,-4.37,-4.3698,-4.3701,-4.3704,-4.3651,-4.3733,-4.3868,-4.3882,-4.3706,-4.3704,-4.3703,0,-4.3622,-4.3661,-4.3708,-4.3715,-4.3717,-4.374,-4.3741,-4.3745,-4.3759,-4.3774,-4.3782,-4.3801,-4.3811,-4.3826,-4.3807,-4.3774,-4.3861,-4.3812,-4.3856,-4.3857,-4.3876,-4.3875,-4.4016,-4.3884,-4.3884,-4.3883,-4.3883,0,-4.3728,-4.3772,-4.375,-4.3779,-4.3827,-4.3804,-4.3852,-4.3849,-4.3854,-4.3881,-4.3849,-4.3875,-4.3849,-4.3873,-4.3858,-4.3903,-4.3907,-4.3903,-4.3898,-4.3906,-4.3907,-4.3914,-4.3907,-4.3887,-4.3886,-4.3885,-4.3885,0,-4.3839,-4.3825,-4.3874,-4.3873,-4.3873,-4.3909,-4.3907,-4.3934,-4.3925,-4.396,-4.3967,-4.3953,-4.398,-4.3963,-4.3989,-4.3979,-4.4038,-4.4025,-4.4036,-4.4033,-4.4078,-4.4074,-4.4228,-4.4247,-4.4103,-4.4104,-4.4105,0,-4.3908,-4.3941,-4.3943,-4.396,-4.3964,-4.3991,-4.4005,-4.3983,-4.3999,-4.4009,-4.4035,-4.4058,-4.4076,-4.412,-4.4112,-4.4132,-4.4119,-4.4172,-4.4122,-4.4129,-4.412,-4.4119,-4.4122,-4.4182,-4.4184,-4.4185,-4.4186,0,-4.4031,-4.4023,-4.4045,-4.4066,-4.4083,-4.4098,-4.4109,-4.4125,-4.4103,-4.4122,-4.4149,-4.4163,-4.419,-4.4214,-4.4231,-4.4232,-4.4206,-4.4202,-4.4213,-4.4221,-4.4227,-4.4225,-4.4064,-4.4198,-4.4197,-4.4196,-4.4196,-4.4195,-4.4123,-4.4152,-4.4158,-4.4184,-4.419,-4.4202,-4.4227,-4.4222,-4.4245,-4.4266,-4.4251,-4.4284,-4.4289,-4.4309,-4.4313,-4.4338,-4.4316,-4.4333,-4.4337,-4.4342,-4.4348,-4.4223,-4.4341,-4.434,-4.434,-4.434,-4.4339,0,-4.4246,-4.4248,-4.4272,-4.429,-4.4311,-4.4285,-4.4296,-4.4315,-4.4344,-4.4352,-4.437,-4.4401,-4.4424,-4.4419,-4.4439,-4.446,-4.4448,-4.4466,-4.4465,-4.4465,-4.4366,-4.4354,-4.4475,-4.4475,-4.4475,-4.4475,-4.4475,-4.4475,-4.4312,-4.4359,-4.4352,-4.4401,-4.4402,-4.4435,-4.4444,-4.4454,-4.446,-4.4497,-4.4517,-4.4513,-4.4515,-4.4536,-4.4556,-4.4553,-4.4563,-4.4585,-4.4578,-4.4486,-4.4472,-4.4459,-4.4448,-4.4587,-4.4587,-4.4676,-4.4676,-4.4677]}]]